Location: Mexico
(19.4000°N, 99.1500°W)
Time: 17:56:05
(UTC-06:00)

ISS - Pass Details

Date: 17 July 2019
Orbit: 409 x 418 km, 51.6° (Epoch: 23 July)

Event Time Altitude Azimuth Distance (km) Brightness Sun altitude
Rises 05:21:22 0° 333° (NNW) 2,326 0.0 -10.7°
Reaches altitude 10° 05:23:35 10° 343° (NNW) 1,465 -0.9 -10.2°
Maximum altitude 05:26:34 32° 49° (NE) 722 -1.7 -9.6°
Drops below altitude 10° 05:29:33 10° 114° (ESE) 1,461 -0.4 -9.0°
Sets 05:31:45 0° 125° (SE) 2,321 0.4 -8.5°
